Home > Weather > Mesa > Past weeks

Flag for USA Weather for the Past 2 Weeks in Mesa, Arizona, USA

Now
97 °F

Scattered clouds.


Feels Like: 92 °F
Forecast: 62 / 75 °F
Wind: 20 mph from Southwest

Location: Williams Gateway Airport

Current Time: May 5, 2016 at 5:16:01 PM

Latest Report: May 5, 2016 at 3:50 PM


Visibility: 45 mi

Pressure: 29.72 "Hg

Humidity: 6%

Dew Point: 21 °F

Location of MesaLocation

Historic Weather in Mesa — Graph

°F

Mesa Temperature Yesterday

Maximum temperature yesterday: 100 °F (at 2:47 PM)
Minimum temperature yesterday: 63 °F (at 2:55 AM)
Average temperature yesterday: 78 °F

High & Low Weather Summary for the Past Weeks

 TemperatureHumidityPressure
High100 °F (May 4, 2:47 PM)73% (Apr 29, 8:47 AM)30.03 "Hg (Apr 29, 8:47 AM)
Low52 °F (Apr 27, 4:15 AM)5% (Apr 25, 4:53 PM)29.58 "Hg (Apr 30, 3:47 PM)
Average70 °F28%29.84 "Hg
* Reported Apr 20 3:47 PM — May 5 3:50 PM, Mesa, Weather by CustomWeather, © 2016

Note: Actual official high and low records may vary slightly from our data, if they occured in-between our weather recording intervals... More about our weather records

Advertising

Mesa Weather History for the Previous 24 Hours

Scroll right to see more
 ConditionsComfort  
Time TempWeatherWind HumidityBarometerVisibility
3:50 PM
Thu, May 5
97 °FScattered clouds.20 mph6%29.72 "Hg45 mi
2:47 PM97 °FScattered clouds.20 mph6%29.75 "Hg30 mi
1:47 PM97 °FScattered clouds.14 mph6%29.78 "Hg45 mi
12:47 PM91 °FPartly sunny.12 mph9%29.80 "Hg45 mi
11:54 AM90 °FScattered clouds.13 mph12%29.84 "Hg45 mi
10:48 AM90 °FScattered clouds.9 mph12%29.86 "Hg40 mi
9:47 AM84 °FScattered clouds.9 mph12%29.88 "Hg45 mi
8:47 AM79 °FScattered clouds.13 mph16%29.89 "Hg45 mi
7:47 AM75 °FPassing clouds.10 mph16%29.89 "Hg45 mi
6:47 AM70 °FPassing clouds.12 mph20%29.87 "Hg45 mi
5:47 AM66 °FPassing clouds.7 mph22%29.85 "Hg40 mi
4:47 AM68 °FPassing clouds.8 mph21%29.84 "Hg20 mi
4:35 AM66 °FClear.9 mph22%29.85 "Hg10 mi
4:15 AM66 °FClear.6 mph22%29.85 "Hg10 mi
3:55 AM64 °FClear.7 mph26%29.85 "Hg10 mi
3:35 AM64 °FClear.7 mph26%29.84 "Hg10 mi
3:15 AM66 °FClear.6 mph28%29.84 "Hg10 mi
2:55 AM66 °FClear.6 mph28%29.84 "Hg10 mi
2:35 AM68 °FClear.6 mph28%29.85 "Hg10 mi
2:15 AM68 °FClear.8 mph30%29.85 "Hg10 mi
1:55 AM68 °FClear.8 mph28%29.86 "Hg10 mi
1:35 AM68 °FClear.8 mph26%29.87 "Hg10 mi
1:15 AM70 °FClear.8 mph27%29.87 "Hg10 mi
12:55 AM70 °FClear.7 mph25%29.86 "Hg10 mi
12:35 AM68 °FClear.9 mph26%29.87 "Hg10 mi
12:15 AM72 °FClear.8 mph22%29.87 "Hg10 mi
11:47 PM
Wed, May 4
75 °FClear.6 mph15%29.86 "Hg20 mi
10:47 PM79 °FClear.No wind15%29.85 "Hg20 mi
9:47 PM82 °FClear.5 mph14%29.84 "Hg20 mi
8:47 PM90 °FClear.10 mph11%29.78 "Hg45 mi
7:55 PM90 °FClear.15 mph11%29.77 "Hg45 mi
6:47 PM97 °FScattered clouds.9 mph7%29.73 "Hg45 mi
5:55 PM99 °FSunny.14 mph7%29.73 "Hg45 mi
Weather by CustomWeather, © 2016

See weather overviewHow to use our weather pages